This demonstration page uses our WeatherBlox Daily Observations layout. Learn more.

Hourly Observations for September 24, 2016

Temp ( °F °C ) Dew Point ( °F °C ) Humidity (%) Winds ( mph kmh ) Pressure ( in mb ) Visibility ( mi km ) Precip ( " mm )
12:15 am 00:15 Clear 72 22 59 15.1 65 65 SSE 13 20 29.77 1008 10 16.09344 0 0
12:35 am 00:35 Clear 71 21.5 59 15.2 67 67 SSE 15 24 29.8 1009 10 16.09344 0 0
12:55 am 00:55 Clear 71 21.7 60 15.6 68 68 SSE 12 19 29.8 1009 10 16.09344 0 0
1:15 am 01:15 Clear 71 21.6 60 15.7 69 69 SSE 13 20 29.8 1009 10 16.09344 0 0
1:35 am 01:35 Clear 71 21.6 61 16 71 71 SSE 13 20 29.8 1009 10 16.09344 0 0
1:55 am 01:55 Clear 71 21.5 62 16.5 73 73 SSE 14 22 29.77 1008 10 16.09344 0 0
2:15 am 02:15 Clear 71 21.9 62 16.9 73 73 SSE 15 24 29.74 1007 10 16.09344 0 0
2:35 am 02:35 Clear 71 21.8 63 17 74 74 SSE 18 30 29.71 1006 10 16.09344 0 0
2:55 am 02:55 Partly Cloudy 71 21.6 63 17.1 76 76 SSE 14 22 29.74 1007 10 16.09344 0 0
3:15 am 03:15 Mostly Cloudy 71 21.6 63 17.3 77 77 SSE 14 22 29.74 1007 10 16.09344 0 0
3:35 am 03:35 Partly Cloudy 71 21.7 64 17.6 78 78 SSE 16 26 29.74 1007 10 16.09344 0 0
3:55 am 03:55 Partly Cloudy with Rain 71 21.7 64 17.8 79 79 S 14 22 29.74 1007 10 16.09344 0 0
4:15 am 04:15 Cloudy 70 21.3 65 18.5 84 84 S 15 24 29.77 1008 10 16.09344 0 0
4:35 am 04:35 Mostly Cloudy with Light Rain 70 21.1 65 18.4 85 85 S 14 22 29.77 1008 10 16.09344 0 0
4:55 am 04:55 Partly Cloudy 70 21 65 18.5 86 86 S 13 20 29.77 1008 10 16.09344 0 0
5:15 am 05:15 Partly Cloudy 69 20.8 65 18.5 87 87 SSE 15 24 29.74 1007 10 16.09344 0 0
5:35 am 05:35 Clear 69 20.5 66 18.8 90 90 S 13 20 29.77 1008 10 16.09344 0 0
5:55 am 05:55 Mostly Cloudy with Light Rain 69 20.5 66 18.7 89 89 S 10 17 29.77 1008 10 16.09344 0 0
6:15 am 06:15 Mostly Cloudy 68 20.1 66 18.7 92 92 S 12 19 29.77 1008 10 16.09344 0 0
6:35 am 06:35 Partly Cloudy 68 20 65 18.5 91 91 S 9 15 29.77 1008 10 16.09344 0 0
6:55 am 06:55 Partly Cloudy 67 19.5 65 18.2 92 92 S 9 15 29.8 1009 10 16.09344 0 0
7:15 am 07:15 Partly Cloudy 67 19.3 64 17.7 91 91 S 9 15 29.8 1009 10 16.09344 0 0
7:35 am 07:35 Sunny 66 19 62 16.7 87 87 S 8 13 29.8 1009 10 16.09344 0 0
7:55 am 07:55 Sunny 65 18.5 60 15.3 82 82 SSW 8 13 29.85 1011 10 16.09344 0 0
8:15 am 08:15 Partly Cloudy 64 17.9 58 14.6 81 81 SSW 6 9 29.85 1011 10 16.09344 0 0
8:35 am 08:35 Sunny 64 17.5 57 13.7 79 79 SSW 8 13 29.85 1011 10 16.09344 0 0
8:55 am 08:55 Sunny 64 17.6 55 12.5 72 72 SW 8 13 29.85 1011 10 16.09344 0 0
9:15 am 09:15 Sunny 63 17.2 53 11.6 70 70 WSW 6 9 29.85 1011 10 16.09344 0 0
9:35 am 09:35 Sunny 63 17.2 54 12.1 72 72 W 6 9 29.85 1011 10 16.09344 0 0
9:55 am 09:55 Sunny 64 17.5 55 12.9 75 75 WNW 7 11 29.85 1011 10 16.09344 0 0
10:15 am 10:15 Sunny 63 17 54 12.2 74 74 WNW 8 13 29.88 1012 10 16.09344 0 0
10:35 am 10:35 Sunny 62 16.6 53 11.5 72 72 WNW 6 9 29.88 1012 10 16.09344 0 0
10:55 am 10:55 Partly Cloudy 63 17 52 11.1 68 68 WNW 8 13 29.88 1012 10 16.09344 0 0
11:15 am 11:15 Partly Cloudy with Nearby Thunderstorms 62 16.8 52 10.9 68 68 W 9 15 29.88 1012 10 16.09344 0 0
11:35 am 11:35 Mostly Cloudy 62 16.7 50 10.1 65 65 Calm 29.91 1013 10 16.09344 0 0
11:55 am 11:55 Partly Cloudy 63 17.4 51 10.5 64 64 Calm 29.91 1013 10 16.09344 0 0
12:15 pm 12:15 Partly Cloudy 64 18 51 10.5 62 62 Calm 29.91 1013 10 16.09344 0 0
12:35 pm 12:35 Mostly Cloudy 66 19.1 51 10.7 58 58 NNW 3 6 29.91 1013 10 16.09344 0 0
12:55 pm 12:55 Partly Cloudy 67 19.3 51 10.5 57 57 NW 5 7 29.88 1012 10 16.09344 0 0
1:15 pm 13:15 Partly Cloudy 68 20.1 51 10.5 54 54 WNW 6 9 29.85 1011 10 16.09344 0 0
1:35 pm 13:35 Cloudy 70 21 51 10.4 51 51 Calm 29.85 1011 10 16.09344 0 0
1:55 pm 13:55 Mostly Cloudy 72 22.3 48 8.7 42 42 WNW 8 13 29.85 1011 10 16.09344 0 0
2:15 pm 14:15 Partly Cloudy 73 23 47 8.6 40 40 W 9 15 29.83 1010 10 16.09344 0 0
2:35 pm 14:35 Sunny 73 23 46 8 38 38 W 7 11 29.8 1009 10 16.09344 0 0
2:55 pm 14:55 Sunny 74 23.5 44 6.7 34 34 W 3 6 29.8 1009 10 16.09344 0 0
3:15 pm 15:15 Sunny 76 24.7 44 6.6 31 31 WNW 9 15 29.77 1008 10 16.09344 0 0
3:35 pm 15:35 Sunny 77 24.8 42 5.4 29 29 Calm 29.77 1008 10 16.09344 0 0
3:55 pm 15:55 Sunny 77 25.2 40 4.4 26 26 WSW 5 7 29.8 1009 10 16.09344 0 0
4:15 pm 16:15 Sunny 78 25.4 40 4.5 26 26 SW 5 7 29.8 1009 10 16.09344 0 0
4:35 pm 16:35 Sunny 78 25.5 37 2.7 23 23 SW 6 9 29.8 1009 10 16.09344 0 0
4:55 pm 16:55 Sunny 78 25.3 38 3.4 24 24 W 5 7 29.8 1009 10 16.09344 0 0
5:15 pm 17:15 Sunny 78 25.5 40 4.5 26 26 Calm 29.8 1009 10 16.09344 0 0
5:35 pm 17:35 Sunny 77 25.2 41 5 27 27 Calm 29.8 1009 10 16.09344 0 0
5:55 pm 17:55 Sunny 78 25.4 44 6.9 31 31 Calm 29.8 1009 10 16.09344 0 0
6:15 pm 18:15 Sunny 77 25 44 6.7 31 31 Calm 29.8 1009 10 16.09344 0 0
6:35 pm 18:35 Sunny 76 24.5 44 6.8 32 32 Calm 29.8 1009 10 16.09344 0 0
6:55 pm 18:55 Sunny 75 23.8 47 8.3 37 37 Calm 29.8 1009 10 16.09344 0 0
7:15 pm 19:15 Sunny 74 23.5 44 6.4 33 33 SSE 6 9 29.83 1010 10 16.09344 0 0
7:35 pm 19:35 Clear 71 21.8 45 7.1 39 39 S 3 6 29.85 1011 10 16.09344 0 0
7:55 pm 19:55 Clear 70 21.2 45 7.4 41 41 Calm 29.85 1011 10 16.09344 0 0
8:15 pm 20:15 Clear 66 19.1 47 8.2 49 49 Calm 29.85 1011 10 16.09344 0 0
8:35 pm 20:35 Clear 66 18.9 47 8.5 51 51 Calm 29.91 1013 10 16.09344 0 0
8:55 pm 20:55 Clear 63 17.1 49 9.5 61 61 Calm 29.91 1013 10 16.09344 0 0
9:15 pm 21:15 Clear 63 17.2 49 9.6 61 61 Calm 29.94 1014 10 16.09344 0 0
9:35 pm 21:35 Clear 62 16.8 49 9.5 62 62 WSW 3 6 29.94 1014 10 16.09344 0 0
9:55 pm 21:55 Clear 60 15.3 49 9.7 69 69 Calm 29.97 1015 10 16.09344 0 0
10:15 pm 22:15 Clear 56 13.4 51 10.5 83 83 W 3 6 29.97 1015 10 16.09344 0 0
10:35 pm 22:35 Clear 56 13.6 50 10 79 79 W 3 6 29.97 1015 10 16.09344 0 0
10:55 pm 22:55 Clear 55 12.8 49 9.7 82 82 WNW 5 7 30.03 1017 10 16.09344 0 0
11:15 pm 23:15 Clear 58 14.5 49 9.5 72 72 WNW 6 9 29.97 1015 10 16.09344 0 0
11:35 pm 23:35 Clear 56 13.4 49 9.4 77 77 WNW 5 7 30 1016 10 16.09344 0 0
11:55 pm 23:55 Clear 57 14 48 9 72 72 NW 7 11 30 1016 10 16.09344 0 0

Powered by AerisWeather